TimeEST,TemperatureF,Dew PointF,Humidity,Sea Level PressureIn,VisibilityMPH,Wind Direction,Wind SpeedMPH,Gust SpeedMPH,PrecipitationIn,Events,Conditions,WindDirDegrees,DateUTC
12:15 AM,35.8,34.5,95,29.95,7.0,ENE,8.1,-,N/A,,Overcast,60,2012-12-26 05:15:00
12:35 AM,35.6,34.9,97,29.91,4.0,ENE,8.1,-,N/A,,Overcast,60,2012-12-26 05:35:00
12:55 AM,35.6,35.1,98,29.90,5.0,ENE,6.9,-,N/A,,Overcast,60,2012-12-26 05:55:00
1:15 AM,35.8,35.2,98,29.89,4.0,ENE,6.9,-,N/A,,Overcast,70,2012-12-26 06:15:00
1:35 AM,35.8,35.6,99,29.87,4.0,NE,8.1,-,N/A,,Overcast,50,2012-12-26 06:35:00
1:55 AM,35.8,35.6,99,29.85,3.0,ENE,6.9,-,N/A,,Overcast,60,2012-12-26 06:55:00
2:15 AM,35.8,35.6,99,29.84,2.5,ENE,5.8,-,N/A,,Overcast,60,2012-12-26 07:15:00
2:35 AM,35.8,35.6,99,29.83,3.0,ENE,6.9,-,N/A,,Overcast,60,2012-12-26 07:35:00
2:55 AM,36.0,35.8,99,29.82,3.0,NE,8.1,-,N/A,,Overcast,50,2012-12-26 07:55:00
3:15 AM,36.0,36.0,100,29.82,3.0,ENE,8.1,-,N/A,,Overcast,60,2012-12-26 08:15:00
3:35 AM,36.1,36.1,100,29.78,2.0,NE,10.4,-,N/A,,Overcast,50,2012-12-26 08:35:00
3:55 AM,36.5,36.5,100,29.76,2.5,ENE,10.4,-,N/A,,Overcast,60,2012-12-26 08:55:00
4:15 AM,36.7,36.7,100,29.75,2.5,East,9.2,-,N/A,,Overcast,80,2012-12-26 09:15:00
4:35 AM,37.0,37.0,100,29.72,2.5,East,10.4,-,N/A,,Overcast,80,2012-12-26 09:35:00
4:55 AM,38.5,38.5,100,29.67,4.0,East,12.7,21.9,N/A,,Overcast,80,2012-12-26 09:55:00
5:15 AM,40.3,40.1,99,29.63,7.0,ESE,20.7,28.8,N/A,Rain,Light Rain,110,2012-12-26 10:15:00
5:35 AM,41.9,39.2,90,29.60,10.0,ESE,19.6,28.8,N/A,Rain,Rain,110,2012-12-26 10:35:00
6:15 AM,41.9,38.3,87,29.58,10.0,ESE,13.8,26.5,N/A,,Overcast,110,2012-12-26 11:15:00
6:35 AM,41.9,38.3,87,29.58,10.0,East,11.5,16.1,N/A,Rain,Light Rain,100,2012-12-26 11:35:00
6:55 AM,41.9,38.3,87,29.58,10.0,East,8.1,-,N/A,Rain,Light Rain,90,2012-12-26 11:55:00
7:15 AM,41.2,38.7,91,29.58,5.0,ESE,12.7,17.3,N/A,Rain,Light Rain,110,2012-12-26 12:15:00
7:35 AM,41.0,38.8,92,29.50,7.0,East,26.5,34.5,N/A,Rain,Light Rain,100,2012-12-26 12:35:00
7:55 AM,41.9,38.8,89,29.52,5.0,ESE,20.7,33.4,N/A,Rain,Light Rain,120,2012-12-26 12:55:00
8:15 AM,41.4,39.2,92,29.47,5.0,ESE,24.2,38.0,N/A,,Overcast,110,2012-12-26 13:15:00
8:35 AM,41.9,38.3,87,29.51,10.0,ESE,18.4,32.2,N/A,,Scattered Clouds,120,2012-12-26 13:35:00
8:55 AM,41.9,38.3,87,29.51,10.0,ESE,15.0,23.0,N/A,,Clear,110,2012-12-26 13:55:00
9:15 AM,42.3,38.5,86,29.51,10.0,East,9.2,20.7,N/A,,Scattered Clouds,100,2012-12-26 14:15:00
9:35 AM,44.1,39.2,83,29.50,10.0,East,11.5,-,N/A,,Clear,100,2012-12-26 14:35:00
9:55 AM,45.5,39.9,81,29.50,10.0,East,9.2,16.1,N/A,,Scattered Clouds,100,2012-12-26 14:55:00
10:15 AM,45.9,40.1,80,29.49,10.0,ESE,13.8,20.7,N/A,,Scattered Clouds,110,2012-12-26 15:15:00
10:35 AM,46.6,40.3,79,29.49,10.0,ESE,15.0,20.7,N/A,,Scattered Clouds,120,2012-12-26 15:35:00
10:55 AM,46.8,40.3,78,29.50,10.0,ESE,8.1,18.4,N/A,,Mostly Cloudy,120,2012-12-26 15:55:00
11:15 AM,46.8,40.1,78,29.49,10.0,East,6.9,-,N/A,,Overcast,100,2012-12-26 16:15:00
11:35 AM,46.9,39.7,76,29.48,10.0,East,8.1,-,N/A,,Overcast,90,2012-12-26 16:35:00
11:55 AM,46.4,39.2,76,29.47,10.0,East,4.6,-,N/A,,Light Drizzle,90,2012-12-26 16:55:00
12:15 PM,45.9,41.2,84,29.46,10.0,ENE,5.8,-,N/A,Rain,Rain,60,2012-12-26 17:15:00
12:35 PM,46.0,41.5,84,29.45,10.0,East,6.9,-,N/A,,Drizzle,80,2012-12-26 17:35:00
12:55 PM,45.7,41.7,86,29.44,10.0,East,4.6,-,N/A,,Light Drizzle,90,2012-12-26 17:55:00
1:15 PM,45.9,40.8,83,29.43,10.0,East,9.2,-,N/A,Rain,Light Rain,100,2012-12-26 18:15:00
1:35 PM,45.7,41.0,84,29.44,10.0,ESE,5.8,-,N/A,Rain,Light Rain,110,2012-12-26 18:35:00
1:55 PM,45.5,41.5,86,29.43,10.0,East,6.9,-,N/A,Rain,Light Rain,90,2012-12-26 18:55:00
2:15 PM,45.5,41.9,87,29.44,10.0,SE,5.8,-,N/A,Rain,Light Rain,140,2012-12-26 19:15:00
2:35 PM,45.5,41.7,87,29.45,7.0,Calm,Calm,-,N/A,Rain,Light Rain,0,2012-12-26 19:35:00
2:55 PM,44.8,43.2,94,29.46,4.0,Calm,Calm,-,N/A,Rain,Light Rain,0,2012-12-26 19:55:00
3:15 PM,44.2,43.7,98,29.46,5.0,West,3.5,-,N/A,Rain,Light Rain,270,2012-12-26 20:15:00
3:35 PM,44.1,43.3,97,29.47,4.0,West,4.6,-,N/A,Rain,Light Rain,270,2012-12-26 20:35:00
4:15 PM,44.1,43.2,97,29.49,5.0,West,4.6,-,N/A,Rain,Rain,260,2012-12-26 21:15:00
4:35 PM,43.9,41.9,93,29.49,7.0,WSW,8.1,-,N/A,Rain,Light Rain,250,2012-12-26 21:35:00
4:55 PM,43.2,40.6,91,29.50,10.0,West,8.1,-,N/A,,Drizzle,260,2012-12-26 21:55:00
5:15 PM,42.8,40.1,90,29.51,10.0,WSW,11.5,20.7,N/A,Rain,Light Rain,250,2012-12-26 22:15:00
5:35 PM,42.4,40.1,91,29.52,10.0,West,11.5,17.3,N/A,,Drizzle,270,2012-12-26 22:35:00
5:55 PM,41.4,37.8,87,29.54,10.0,West,21.9,31.1,N/A,,Light Drizzle,260,2012-12-26 22:55:00
6:15 PM,40.5,34.9,80,29.56,10.0,West,18.4,26.5,N/A,,Overcast,260,2012-12-26 23:15:00
6:35 PM,39.9,35.2,83,29.58,10.0,WSW,15.0,21.9,N/A,,Overcast,240,2012-12-26 23:35:00
6:55 PM,38.7,34.7,86,29.60,10.0,WSW,12.7,20.7,N/A,,Overcast,250,2012-12-26 23:55:00
7:15 PM,38.1,34.3,86,29.61,10.0,WSW,11.5,20.7,N/A,,Overcast,250,2012-12-27 00:15:00
7:35 PM,37.4,34.2,88,29.63,10.0,West,12.7,24.2,N/A,,Overcast,270,2012-12-27 00:35:00
7:55 PM,36.7,33.4,88,29.65,10.0,West,12.7,21.9,N/A,,Overcast,270,2012-12-27 00:55:00
8:15 PM,35.8,32.0,86,29.66,10.0,West,15.0,26.5,N/A,,Overcast,260,2012-12-27 01:15:00
8:35 PM,35.1,31.8,88,29.68,10.0,West,13.8,24.2,N/A,,Overcast,260,2012-12-27 01:35:00
8:55 PM,33.8,32.0,93,29.70,5.0,West,15.0,24.2,N/A,Snow,Light Snow,270,2012-12-27 01:55:00
9:15 PM,33.3,31.1,92,29.71,10.0,West,13.8,23.0,N/A,Snow,Light Snow,260,2012-12-27 02:15:00
9:35 PM,32.9,30.6,91,29.73,5.0,West,8.1,16.1,N/A,Snow,Light Snow,280,2012-12-27 02:35:00
9:55 PM,32.0,30.2,93,29.75,2.0,West,11.5,19.6,N/A,Snow,Light Snow,280,2012-12-27 02:55:00
10:15 PM,32.0,29.3,90,29.76,10.0,West,9.2,19.6,N/A,,Overcast,260,2012-12-27 03:15:00
10:35 PM,32.0,29.3,90,29.78,10.0,WNW,11.5,19.6,N/A,,Overcast,290,2012-12-27 03:35:00
10:55 PM,32.0,29.1,89,29.80,10.0,West,16.1,25.3,N/A,,Overcast,280,2012-12-27 03:55:00
11:15 PM,31.8,29.1,90,29.81,10.0,WNW,8.1,17.3,N/A,,Overcast,300,2012-12-27 04:15:00
11:35 PM,31.6,28.9,90,29.83,10.0,West,13.8,23.0,N/A,,Overcast,280,2012-12-27 04:35:00
11:55 PM,31.6,28.6,88,29.84,10.0,WNW,13.8,24.2,N/A,,Overcast,290,2012-12-27 04:55:00